[[{"header":{"parameterUnit":"m.s-1","parameterCategory":1,"la1":30.2991,"la2":30.254,"lo1":-89.0895,"lo2":-89.0444,"dy":0.0017,"dx":0.0017,"nx":28,"ny":28,"refTime":"2025-05-25T21:00:00:Z","depth":0,"parameterNumber":2,"parameterNumberName":"U-component_of_WINDS"},"data":[0,0,0,0,0,0,0,0,0,0,0,0,0,0,0,0,0,0,0,0,0,0,0,0,0,0,0,0,0,0,0,0,0,0,0,0,0,0,0,0,0,0,0,0,0,0,0,0,0,0,0,0,0,0,0,0,0,0,-0.6485,-0.6485,0,-0.6504,-0.6504,-0.6504,-0.6492,-0.6492,-0.6491,-0.6491,-0.6513,-0.6514,-0.6515,0,0,0,0,0,0,0,0,0,0,0,0,0,-0.6441,-0.6442,-0.6485,-0.6485,-0.6485,-0.6504,-0.6504,-0.6504,-0.6493,-0.6492,-0.6491,-0.649,-0.6512,-0.6513,-0.6515,0,0,0,0,0,0,0,0,0,0,0,0,0,-0.646,-0.6442,-0.6485,-0.6481,-0.6481,-0.6504,-0.6504,-0.6505,-0.6493,-0.6492,-0.6491,-0.649,-0.6512,-0.6513,-0.6515,-0.6542,0,0,-0.652,-0.6521,0,0,0,0,0,0,0,0,-0.6459,-0.6462,-0.6482,-0.6482,-0.6482,-0.6495,-0.6497,-0.6517,-0.6493,-0.6488,-0.6491,-0.649,-0.6508,-0.6509,-0.6515,-0.6543,-0.6544,-0.652,-0.6521,-0.6522,-0.6522,0,0,0,0,0,0,0,-0.6458,-0.6461,-0.6492,-0.6482,-0.6482,-0.648,-0.6482,-0.6501,-0.6503,-0.6489,-0.6488,-0.649,-0.6507,-0.6513,-0.6515,-0.6545,-0.652,-0.6522,-0.6523,-0.6523,-0.6598,-0.6599,0,0,0,0,0,0,-0.6456,-0.646,-0.6492,-0.6493,-0.6468,-0.6482,-0.6484,-0.6492,-0.6502,-0.6503,-0.6491,-0.649,-0.6511,-0.6514,-0.6516,-0.6549,-0.6522,-0.6524,-0.6524,-0.6597,-0.6598,-0.6599,0,0,0,0,0,0,-0.6455,-0.6459,-0.6491,-0.6476,-0.648,-0.6483,-0.6492,-0.6492,-0.6498,-0.6504,-0.6505,-0.6497,-0.651,-0.6514,-0.6536,-0.655,-0.6524,-0.6526,-0.6596,-0.6597,-0.6599,-0.6615,0,0,0,0,0,0,-0.6454,-0.6459,-0.6468,-0.6476,-0.6481,-0.651,-0.6493,-0.6493,-0.6501,-0.6499,-0.6509,-0.651,-0.651,-0.6534,-0.6538,-0.6551,-0.6527,-0.6594,-0.6596,-0.6598,-0.6613,-0.6617,-0.662,0,0,0,0,0,-0.6453,-0.6473,-0.6469,-0.6473,-0.6493,-0.651,-0.6513,-0.6512,-0.6502,-0.6512,-0.6516,-0.651,-0.6548,-0.6536,-0.6541,-0.6555,-0.6594,-0.6596,-0.6598,-0.6612,-0.6616,-0.662,0,0,0,0,0,0,-0.6467,-0.6473,-0.6469,-0.6493,-0.6501,-0.6508,-0.6521,-0.6516,-0.6528,-0.6526,-0.6525,-0.6527,-0.655,-0.6555,-0.6542,-0.6583,-0.6569,-0.6573,-0.6578,-0.6583,-0.6586,-0.6584,-0.6528,0,0,0,0,0,-0.6472,-0.6485,-0.6491,-0.6511,-0.6515,-0.6517,-0.6525,-0.6523,-0.6532,-0.6536,-0.6541,-0.6551,-0.6565,-0.6574,-0.6588,-0.6615,-0.6617,-0.6627,-0.663,-0.6633,-0.6636,-0.6651,-0.6655,-0.6606,-0.6606,-0.6606,0,0,-0.6484,-0.649,-0.6498,-0.6514,-0.652,-0.6534,-0.652,-0.6536,-0.6547,-0.6539,-0.6559,-0.6564,-0.6575,-0.66,-0.6611,-0.6604,-0.665,-0.6636,-0.6638,-0.6639,-0.6653,-0.6658,-0.6662,-0.6608,-0.6608,-0.6607,0,0,-0.6513,-0.6518,-0.6535,-0.6542,-0.6552,-0.6553,-0.6558,-0.6566,-0.6569,-0.659,-0.6584,-0.6598,-0.6622,-0.663,-0.6637,-0.6671,-0.6666,-0.6676,-0.6693,-0.6708,-0.6712,-0.6715,-0.6727,-0.6731,-0.6679,-0.6679,-0.6679,0,-0.6527,-0.6547,-0.6545,-0.6561,-0.6569,-0.6562,-0.658,-0.6587,-0.6601,-0.6607,-0.6599,-0.663,-0.6637,-0.6664,-0.6672,-0.6678,-0.6684,-0.6674,-0.6711,-0.6714,-0.6718,-0.6729,-0.6733,-0.668,-0.668,-0.668,-0.6679,0,-0.6563,-0.6578,-0.6591,-0.6603,-0.6613,-0.663,-0.6632,-0.6642,-0.664,-0.6643,-0.6665,-0.6673,-0.6688,-0.6695,-0.6694,-0.6722,-0.6718,-0.6711,-0.6697,-0.6723,-0.6734,-0.6738,-0.6681,-0.6681,-0.6681,-0.668,0,0,-0.66,-0.6612,-0.6617,-0.6623,-0.6634,-0.6645,-0.6663,-0.6677,-0.6686,-0.6696,-0.6711,-0.6733,-0.6727,-0.6735,-0.6735,-0.6748,-0.6775,-0.674,-0.674,-0.6745,-0.6807,-0.6811,-0.6816,-0.6772,-0.6773,-0.6773,-0.6806,0,-0.6629,-0.6657,-0.6657,-0.6685,-0.6698,-0.6693,-0.6709,-0.6718,-0.6721,-0.6734,-0.6739,-0.6754,-0.6745,-0.675,-0.6763,-0.6768,-0.6787,-0.6766,-0.6786,-0.6787,-0.6782,-0.6821,-0.6826,-0.6856,-0.681,-0.6811,-0.6811,0,-0.6666,-0.6677,-0.6705,-0.6715,-0.672,-0.6734,-0.6747,-0.676,-0.6771,-0.6773,-0.6783,-0.6781,-0.68,-0.6787,-0.6814,-0.68,-0.6809,-0.6813,-0.6814,-0.6815,-0.6799,-0.6823,-0.6865,-0.6869,-0.6818,-0.6817,-0.6817,0,-0.6689,-0.6711,-0.6731,-0.6736,-0.6748,-0.6758,-0.6764,-0.6774,-0.6782,-0.6795,-0.6801,-0.6816,-0.6824,-0.6836,-0.6839,-0.683,-0.6866,-0.6853,-0.6869,-0.6869,-0.6875,-0.6874,-0.6919,-0.6883,-0.6883,-0.6882,-0.6882,0,-0.672,-0.6738,-0.6741,-0.6753,-0.6773,-0.6774,-0.6794,-0.6799,-0.6809,-0.6822,-0.682,-0.6833,-0.6837,-0.6851,-0.6854,-0.6876,-0.688,-0.6882,-0.6883,-0.6882,-0.6881,-0.6886,-0.6884,-0.6884,-0.6883,-0.6883,-0.6883,0,-0.6749,-0.6752,-0.6773,-0.6783,-0.6786,-0.68,-0.6809,-0.6821,-0.6825,-0.6843,-0.6847,-0.6854,-0.6871,-0.6876,-0.6896,-0.6898,-0.6924,-0.6923,-0.6919,-0.6919,-0.6934,-0.6932,-0.6982,-0.6989,-0.6949,-0.6949,-0.695,0,-0.6768,-0.6781,-0.6792,-0.6801,-0.6807,-0.6821,-0.683,-0.6832,-0.6842,-0.6856,-0.6867,-0.6884,-0.6897,-0.6925,-0.6932,-0.6948,-0.6947,-0.6964,-0.6949,-0.6948,-0.6947,-0.6945,-0.6947,-0.6966,-0.6966,-0.6967,-0.6967,0,-0.6802,-0.6803,-0.6816,-0.6829,-0.684,-0.6851,-0.6861,-0.6869,-0.6873,-0.6885,-0.6901,-0.6912,-0.6933,-0.695,-0.6966,-0.6973,-0.6971,-0.6972,-0.6976,-0.6974,-0.6972,-0.6973,-0.6926,-0.697,-0.697,-0.6969,-0.6969,-0.6969,-0.6826,-0.6838,-0.6847,-0.6862,-0.687,-0.688,-0.6892,-0.6898,-0.6912,-0.6928,-0.693,-0.6948,-0.696,-0.6982,-0.699,-0.7006,-0.7001,-0.7007,-0.7009,-0.701,-0.7011,-0.697,-0.7009,-0.7009,-0.7009,-0.7009,-0.7009,0,-0.6859,-0.6866,-0.6879,-0.6893,-0.6905,-0.6902,-0.6914,-0.6924,-0.694,-0.6951,-0.6964,-0.6985,-0.7001,-0.701,-0.7027,-0.7038,-0.7037,-0.7042,-0.7041,-0.7043,-0.7014,-0.7009,-0.7043,-0.7042,-0.7042,-0.7042,-0.7042,-0.7042,-0.6878,-0.6897,-0.69,-0.6924,-0.6931,-0.6948,-0.6955,-0.6965,-0.6974,-0.6996,-0.7009,-0.7015,-0.7026,-0.7044,-0.706,-0.7062,-0.7068,-0.7073,-0.7075,-0.7048,-0.7045,-0.7041,-0.7036,-0.7075,-0.7075,-0.7102,-0.7102,-0.7103]},{"header":{"parameterUnit":"m.s-1","parameterCategory":1,"la1":30.2991,"la2":30.254,"lo1":-89.0895,"lo2":-89.0444,"dy":0.0017,"dx":0.0017,"nx":28,"ny":28,"refTime":"2025-05-25T21:00:00:Z","depth":0,"parameterNumber":3,"parameterNumberName":"V-component_of_WINDS"},"data":[0,0,0,0,0,0,0,0,0,0,0,0,0,0,0,0,0,0,0,0,0,0,0,0,0,0,0,0,0,0,0,0,0,0,0,0,0,0,0,0,0,0,0,0,0,0,0,0,0,0,0,0,0,0,0,0,0,0,3.83,3.83,0,3.8282,3.8282,3.8282,3.8311,3.8312,3.8313,3.8314,3.8291,3.8289,3.8288,0,0,0,0,0,0,0,0,0,0,0,0,0,3.8357,3.8356,3.83,3.83,3.83,3.8282,3.8282,3.8281,3.8311,3.8312,3.8313,3.8314,3.8291,3.829,3.8288,0,0,0,0,0,0,0,0,0,0,0,0,0,3.8335,3.8356,3.83,3.8312,3.8313,3.8282,3.8282,3.8281,3.831,3.8312,3.8313,3.8315,3.8292,3.829,3.8287,3.8242,0,0,3.828,3.8279,0,0,0,0,0,0,0,0,3.8336,3.8333,3.8311,3.8311,3.8312,3.83,3.8293,3.8268,3.831,3.8311,3.8314,3.8316,3.8292,3.829,3.8283,3.8241,3.824,3.828,3.8279,3.8278,3.8277,0,0,0,0,0,0,0,3.8338,3.8334,3.8293,3.831,3.8311,3.8318,3.8316,3.8289,3.8293,3.8311,3.8313,3.8311,3.8293,3.8285,3.8283,3.824,3.828,3.8278,3.8277,3.8276,3.8161,3.816,0,0,0,0,0,0,3.8338,3.8335,3.8293,3.8292,3.8328,3.8315,3.8314,3.8303,3.8294,3.8294,3.831,3.8312,3.8289,3.8286,3.8282,3.823,3.8278,3.8275,3.8274,3.8163,3.8161,3.8159,0,0,0,0,0,0,3.8339,3.8334,3.8294,3.8314,3.831,3.8313,3.83,3.8301,3.8294,3.8293,3.8293,3.8301,3.829,3.8286,3.8253,3.8229,3.8274,3.8272,3.8165,3.8162,3.816,3.8124,0,0,0,0,0,0,3.8341,3.8335,3.8318,3.8314,3.8308,3.8266,3.8299,3.83,3.829,3.8294,3.8285,3.8285,3.8291,3.8256,3.825,3.8227,3.827,3.8167,3.8164,3.8161,3.8127,3.8121,3.8115,0,0,0,0,0,3.8343,3.8307,3.8317,3.8312,3.8288,3.8264,3.8261,3.827,3.8288,3.8271,3.8271,3.8285,3.8233,3.8252,3.8246,3.8222,3.8168,3.8165,3.8161,3.813,3.8122,3.8115,0,0,0,0,0,0,3.8307,3.8307,3.8318,3.828,3.8272,3.8269,3.8248,3.8261,3.8246,3.825,3.826,3.8258,3.8223,3.8219,3.8241,3.8178,3.8204,3.8199,3.8182,3.8174,3.8168,3.817,3.8268,0,0,0,0,0,3.8295,3.8277,3.8277,3.8244,3.824,3.8245,3.8235,3.8242,3.8234,3.823,3.8227,3.8217,3.8199,3.8186,3.8169,3.8127,3.8126,3.8107,3.8101,3.8096,3.8091,3.807,3.8062,3.8147,3.8147,3.8147,0,0,3.827,3.8267,3.8255,3.8237,3.8232,3.8212,3.8242,3.8219,3.8204,3.8226,3.8196,3.8193,3.8183,3.8146,3.8129,3.8141,3.8068,3.8091,3.8087,3.8085,3.8065,3.8057,3.805,3.8145,3.8145,3.8145,0,0,3.8213,3.821,3.8182,3.8177,3.8169,3.8173,3.8166,3.8162,3.8162,3.8132,3.8148,3.813,3.8098,3.8091,3.8082,3.8025,3.8038,3.8019,3.7986,3.7965,3.7958,3.7953,3.7932,3.7925,3.8014,3.8014,3.8014,0,3.8182,3.8154,3.8166,3.8143,3.8135,3.8156,3.8128,3.8121,3.8108,3.8101,3.8116,3.8077,3.8071,3.8033,3.8019,3.8012,3.8004,3.802,3.7959,3.7953,3.7947,3.7928,3.7921,3.8012,3.8012,3.8013,3.8013,0,3.8116,3.8097,3.8075,3.8064,3.8053,3.8027,3.8035,3.8022,3.8031,3.8033,3.8002,3.7997,3.7979,3.7971,3.7978,3.7934,3.7942,3.7957,3.7983,3.7937,3.7919,3.7912,3.8009,3.801,3.801,3.8011,0,0,3.8036,3.8033,3.8025,3.8021,3.8014,3.7999,3.7974,3.7959,3.7948,3.7938,3.7918,3.7891,3.7906,3.7897,3.7904,3.7885,3.7841,3.7903,3.7903,3.7892,3.7792,3.7781,3.7772,3.785,3.7848,3.7847,3.7793,0,3.798,3.794,3.795,3.7909,3.7891,3.7912,3.789,3.7884,3.7885,3.787,3.7871,3.7852,3.7873,3.7868,3.785,3.785,3.7821,3.7854,3.783,3.7829,3.7832,3.7763,3.775,3.7699,3.7786,3.7785,3.7784,0,3.791,3.79,3.7857,3.7856,3.7848,3.7829,3.7817,3.7802,3.7795,3.7797,3.7788,3.7799,3.7774,3.78,3.7766,3.7789,3.778,3.7778,3.7777,3.7775,3.7804,3.7759,3.7683,3.7676,3.7773,3.7774,3.7775,0,3.7856,3.7831,3.7803,3.7799,3.7796,3.7782,3.778,3.7775,3.7765,3.7754,3.7748,3.7733,3.7725,3.7713,3.772,3.7738,3.7685,3.7711,3.7686,3.7686,3.7674,3.7674,3.7595,3.7667,3.7667,3.7668,3.7668,0,3.7793,3.7766,3.778,3.7762,3.7733,3.7745,3.7716,3.7716,3.7711,3.7694,3.771,3.7693,3.7703,3.7687,3.7692,3.7663,3.7659,3.766,3.7662,3.7659,3.7659,3.7653,3.7657,3.7666,3.7666,3.7666,3.7667,0,3.7728,3.7736,3.7707,3.7707,3.7706,3.7685,3.7685,3.7668,3.7672,3.7649,3.7645,3.7649,3.7631,3.7637,3.7617,3.762,3.7584,3.759,3.7587,3.7589,3.7563,3.7566,3.7478,3.7467,3.7546,3.7545,3.7544,0,3.7687,3.7668,3.7667,3.7657,3.7654,3.7638,3.7629,3.764,3.763,3.7622,3.7606,3.759,3.7578,3.7548,3.7549,3.7534,3.754,3.751,3.7537,3.7535,3.754,3.7541,3.7539,3.7504,3.7503,3.7503,3.7502,0,3.7615,3.762,3.7607,3.7596,3.7586,3.7577,3.7569,3.756,3.7571,3.7559,3.7541,3.7532,3.7513,3.7496,3.7483,3.748,3.7493,3.7494,3.7487,3.7484,3.7483,3.7484,3.7573,3.7496,3.7496,3.7497,3.7497,3.7497,3.7561,3.7545,3.7542,3.7528,3.7524,3.7517,3.7502,3.7504,3.749,3.7477,3.7484,3.7464,3.7458,3.7442,3.7437,3.7421,3.7433,3.7423,3.742,3.7418,3.7415,3.7486,3.7419,3.7419,3.7419,3.7419,3.7419,0,3.749,3.7489,3.7476,3.7466,3.7455,3.747,3.7462,3.7452,3.7434,3.7429,3.7417,3.7397,3.7382,3.7382,3.7368,3.7355,3.7361,3.7351,3.7352,3.7351,3.7405,3.7413,3.7347,3.7347,3.7347,3.7347,3.7347,3.7347,3.7451,3.7426,3.7431,3.7403,3.7402,3.7384,3.7379,3.7372,3.7368,3.7346,3.7334,3.7335,3.7332,3.7318,3.7304,3.7305,3.7299,3.7287,3.7289,3.734,3.7347,3.7354,3.7361,3.7285,3.7285,3.7237,3.7236,3.7236]}]]